Time_in_sec,Mx,My,Mz
1312470853.53557062,-0.78130257,-0.07099789,-0.66203904
1312470853.58843231,-0.77967983,-0.06971271,-0.66450846
1312470853.63542914,-0.77836150,-0.06869832,-0.66524631
1312470853.68728662,-0.78046227,-0.07098566,-0.66400653
1312470853.73540974,-0.77918774,-0.07151685,-0.66339135
1312470853.78727436,-0.77925384,-0.07127406,-0.66218740
1312470853.83630061,-0.78035390,-0.07115857,-0.65996712
1312470853.88760042,-0.77887392,-0.06831682,-0.66460681
1312470853.93635249,-0.77997911,-0.07255794,-0.66074133
1312470853.98437738,-0.77789259,-0.06848377,-0.66199535
1312470854.03634381,-0.77996206,-0.06983558,-0.66465825
1312470854.08837509,-0.77832359,-0.06924006,-0.66241777
1312470854.13628101,-0.77899605,-0.07410228,-0.66053855
1312470854.18443346,-0.77956474,-0.06996489,-0.66490310
1312470854.23635125,-0.77882695,-0.07204621,-0.66202259
1312470854.28741574,-0.77879614,-0.06873875,-0.66110486
1312470854.33639288,-0.78052837,-0.07074286,-0.66280264
1312470854.38512826,-0.78050101,-0.07021362,-0.66455215
1312470854.43634439,-0.77837479,-0.06907808,-0.66551304
1312470854.48838830,-0.78087884,-0.06945085,-0.66390771
1312470854.53630447,-0.78077894,-0.07074434,-0.66241390
1312470854.58733463,-0.77976018,-0.06870257,-0.66344553
1312470854.63629961,-0.77969193,-0.07113693,-0.66261697
1312470854.68741536,-0.78026038,-0.06985265,-0.66279382
1312470854.73639274,-0.77933836,-0.07281183,-0.66150880
1312470854.78843307,-0.77884948,-0.06638522,-0.66623265
1312470854.83699417,-0.78088593,-0.07151321,-0.66201109
1312470854.88734889,-0.77942091,-0.07062961,-0.66260511
1312470854.93629909,-0.77955931,-0.07141720,-0.66045684
1312470854.98742533,-0.77966422,-0.06846607,-0.66182905
1312470855.03634071,-0.77767044,-0.06990337,-0.66076231
1312470855.08742452,-0.77865481,-0.06935354,-0.66337681
1312470855.13630104,-0.78097451,-0.07152099,-0.66120976
1312470855.18831778,-0.78148490,-0.06945847,-0.66259873
1312470855.23633528,-0.77890027,-0.06897370,-0.66285628
1312470855.28732300,-0.77846932,-0.07025637,-0.66268736
1312470855.33685493,-0.77944326,-0.07281648,-0.66097724
1312470855.38735652,-0.77959597,-0.06988094,-0.66087371
1312470855.43635845,-0.78053224,-0.07114916,-0.66064948
1312470855.48733401,-0.77940959,-0.06897511,-0.66221368
1312470855.53634644,-0.78060377,-0.06945405,-0.66389179
1312470855.58842564,-0.77804738,-0.06733193,-0.66214734
1312470855.63631439,-0.77984238,-0.07232925,-0.65845042
1312470855.68742585,-0.78147662,-0.07037685,-0.66030663
1312470855.73635435,-0.77865237,-0.07042295,-0.65893358
1312470855.78732538,-0.77918726,-0.07131153,-0.65882343
1312470855.84363103,-0.78060955,-0.07052191,-0.65958345
1312470855.88774848,-0.78038156,-0.06985418,-0.66253203
1312470855.93629551,-0.78121078,-0.07127034,-0.66055334
1312470855.98741388,-0.77921706,-0.07077134,-0.66151708
1312470856.03631473,-0.77947885,-0.07038838,-0.66126633
1312470856.08741713,-0.78034675,-0.07103251,-0.65983325
1312470856.13629937,-0.78022152,-0.07256099,-0.66021770
1312470856.18741369,-0.77965111,-0.07114474,-0.66194254
1312470856.23633385,-0.78013498,-0.07127847,-0.66089433
1312470856.28729868,-0.77846521,-0.06974741,-0.66255653
1312470856.33643842,-0.78053004,-0.07130176,-0.65836346
1312470856.38444042,-0.77954012,-0.06793062,-0.66424501
1312470856.43628669,-0.77923113,-0.07092082,-0.65950090
1312470856.48730826,-0.77780694,-0.07002940,-0.66076928
1312470856.53636503,-0.77976412,-0.07012835,-0.66141915
1312470856.58844757,-0.77899909,-0.07076361,-0.66244537
1312470856.63630795,-0.78068823,-0.07190865,-0.66105592
1312470856.68730378,-0.77883703,-0.06975042,-0.66190600
1312470856.73628426,-0.77936065,-0.07000396,-0.66153115
1312470856.78832340,-0.77856296,-0.06962600,-0.66189110
1312470856.83632159,-0.77808505,-0.06964330,-0.66078824
1312470856.88441849,-0.77849180,-0.07050695,-0.66308993
1312470856.93629766,-0.77965933,-0.07216267,-0.66220415
1312470856.98745561,-0.77948195,-0.07102497,-0.66139609
1312470857.03633428,-0.77835923,-0.07180669,-0.66105658
1312470857.08432889,-0.77961552,-0.06959759,-0.66343045
1312470857.13629365,-0.78028482,-0.07280374,-0.66129470
1312470857.18812704,-0.77858454,-0.06806790,-0.66432315
1312470857.23536777,-0.77985293,-0.07125827,-0.66302854
1312470857.28827834,-0.77874523,-0.07002287,-0.66042030
1312470857.33634210,-0.77910793,-0.07117455,-0.65976065
1312470857.38443637,-0.77897561,-0.06962119,-0.66191500
1312470857.43634200,-0.78115982,-0.07255446,-0.65986878
1312470857.48753524,-0.78047520,-0.06922380,-0.66173577
1312470857.53629208,-0.78102952,-0.07074583,-0.66202515
1312470857.58444834,-0.78047627,-0.07011565,-0.66186357
1312470857.63630009,-0.77863932,-0.07014585,-0.66095084
1312470857.68443537,-0.78056711,-0.06997082,-0.66334820
1312470857.73633885,-0.78045696,-0.07152115,-0.66171747
1312470857.78741693,-0.77957457,-0.07052222,-0.66059887
1312470857.83702016,-0.77975810,-0.07191361,-0.66153979
1312470857.88727832,-0.78025711,-0.07013288,-0.66050678
1312470857.93634200,-0.78003198,-0.07295486,-0.65939742
1312470857.98730469,-0.77797532,-0.06640421,-0.66537565
1312470858.03628349,-0.77968687,-0.07177509,-0.66261184
1312470858.08443880,-0.77846706,-0.06938948,-0.66027462
1312470858.13632727,-0.77969897,-0.07319929,-0.66072035
1312470858.18781042,-0.78075254,-0.06906800,-0.66403770
1312470858.23634148,-0.77963299,-0.07150579,-0.66395473
1312470858.28731084,-0.77907562,-0.07036665,-0.66366231
1312470858.33543658,-0.78091127,-0.07229771,-0.66025954
1312470858.38851404,-0.77969068,-0.07049746,-0.66386575
1312470858.43573999,-0.77784717,-0.07129365,-0.66294670
1312470858.48728728,-0.77907813,-0.07115313,-0.66288441
1312470858.53555155,-0.77965909,-0.07139578,-0.66345388
1312470858.59546661,-0.77964902,-0.06971589,-0.66534787
1312470858.63635111,-0.77978134,-0.06795863,-0.66143644
1312470858.68747568,-0.77819526,-0.07013194,-0.66267246
1312470858.73633099,-0.77829027,-0.07151557,-0.66441470
1312470858.78741527,-0.77842051,-0.06934893,-0.66403532
1312470858.83640099,-0.78052348,-0.07443946,-0.66317773
1312470858.89547300,-0.77935910,-0.07046455,-0.66609704
1312470858.93632960,-0.77833277,-0.06513560,-0.66433066
1312470858.98742843,-0.77972680,-0.07097808,-0.66544247
1312470859.04855657,-0.77913392,-0.07226705,-0.66486096
1312470859.08731699,-0.78086430,-0.06807657,-0.66122931
1312470859.13639903,-0.78010285,-0.07352901,-0.66517621
1312470859.19549942,-0.77873981,-0.07109665,-0.66726607
1312470859.23644304,-0.77944827,-0.06718358,-0.66263258
1312470859.28731012,-0.77878124,-0.07177535,-0.66350031
1312470859.34841585,-0.78097093,-0.07325632,-0.66590035
1312470859.38843799,-0.78100425,-0.06700555,-0.66568047
1312470859.43643308,-0.78058660,-0.07264326,-0.66400123
1312470859.49532151,-0.77953434,-0.06981854,-0.66664958
1312470859.53536582,-0.78136289,-0.06866775,-0.66501671
1312470859.58832765,-0.77765769,-0.06779263,-0.66709399
1312470859.63674164,-0.77898294,-0.07280570,-0.66242909
1312470859.68742943,-0.77874476,-0.06841953,-0.66701770
1312470859.73630548,-0.78021270,-0.07085654,-0.66439629
1312470859.79546571,-0.77913600,-0.07007548,-0.66689348
1312470859.84030390,-0.77977967,-0.06739973,-0.66587555
1312470859.88732386,-0.78106660,-0.06941491,-0.66700989
1312470859.94732165,-0.77934897,-0.07174086,-0.66608685
1312470859.98435140,-0.78047943,-0.06779646,-0.66389710
1312470860.03530979,-0.77870321,-0.07069661,-0.66887975
1312470860.09637141,-0.77933580,-0.07044427,-0.66797739
1312470860.13628149,-0.78012717,-0.06649061,-0.66697764
1312470860.18734574,-0.77979738,-0.06941061,-0.66868377
1312470860.23532391,-0.78019762,-0.07185419,-0.66653824
1312470860.28727579,-0.77976167,-0.06979975,-0.66814119
1312470860.33629870,-0.78076303,-0.07095280,-0.66671205
1312470860.39644480,-0.77696210,-0.06892435,-0.66933006
1312470860.43629622,-0.77950865,-0.06689242,-0.66586375
1312470860.48434281,-0.78076023,-0.07143836,-0.66899294
1312470860.54441929,-0.78075284,-0.07120962,-0.66657513
1312470860.58830428,-0.78073853,-0.06993800,-0.66618067
1312470860.63531470,-0.77944571,-0.07276655,-0.66554719
1312470860.69529510,-0.77959859,-0.06993367,-0.66772759
1312470860.73629856,-0.77987236,-0.06791647,-0.66520506
1312470860.78833079,-0.77946419,-0.07057186,-0.66784942
1312470860.83529282,-0.77904868,-0.07004274,-0.66997975
1312470860.89540148,-0.78043193,-0.06890301,-0.66778350
1312470860.94444513,-0.78006178,-0.06548364,-0.66577184
1312470860.98436189,-0.77819651,-0.06613172,-0.66673440
1312470861.04848719,-0.77990633,-0.07288000,-0.66637927
1312470861.09567523,-0.78040409,-0.07112423,-0.66306138
1312470861.14742732,-0.78077811,-0.06699938,-0.66647381
1312470861.19542742,-0.77963382,-0.06831972,-0.66357553
1312470861.23630476,-0.78063852,-0.06623676,-0.66633707
1312470861.29540992,-0.78099746,-0.07004059,-0.66821080
1312470861.34442687,-0.77826375,-0.06484447,-0.66768873
1312470861.39632320,-0.78173786,-0.07134632,-0.66474944
1312470861.44731283,-0.78052336,-0.06842523,-0.66470128
1312470861.49535227,-0.77987647,-0.06842543,-0.66533589
1312470861.54843497,-0.78022701,-0.06815290,-0.66656774
1312470861.59541345,-0.77910924,-0.06921329,-0.66407609
1312470861.64843225,-0.77812707,-0.06563526,-0.66552460
1312470861.69530797,-0.78034902,-0.06792413,-0.66402298
1312470861.73632216,-0.78019953,-0.06854048,-0.66616005
1312470861.79644942,-0.78033644,-0.07182761,-0.66883117
1312470861.84741688,-0.77913880,-0.06561466,-0.66638952
1312470861.89632082,-0.77981424,-0.06907453,-0.66438663
1312470861.94732523,-0.77996099,-0.06598794,-0.66643423
1312470861.98843741,-0.78003025,-0.06740122,-0.66548681
1312470862.04855776,-0.78101796,-0.07156591,-0.66873807
1312470862.09645772,-0.78115314,-0.06967794,-0.66620654
1312470862.14741015,-0.77844614,-0.06330505,-0.66824841
1312470862.19542646,-0.78112549,-0.07098234,-0.66364169
1312470862.23535013,-0.77939755,-0.06561459,-0.66613567
1312470862.29641986,-0.78109539,-0.06900235,-0.66970259
1312470862.34743118,-0.77968490,-0.06611878,-0.66641730
1312470862.39561987,-0.78163999,-0.06942877,-0.66516137
1312470862.44846225,-0.77941817,-0.06520360,-0.66869348
1312470862.49543929,-0.78073758,-0.06812934,-0.66821015
1312470862.54743385,-0.77945501,-0.06672579,-0.66949052
1312470862.59543586,-0.77916348,-0.06469316,-0.66895139
1312470862.64731789,-0.77960044,-0.06560048,-0.66722268
1312470862.69643140,-0.77866721,-0.06894412,-0.66579974
1312470862.73538375,-0.78046983,-0.06734179,-0.67048532
1312470862.79529595,-0.78015524,-0.06834733,-0.67220670
1312470862.84743643,-0.78026575,-0.06738086,-0.66711336
1312470862.89643049,-0.78023219,-0.06955371,-0.66682631
1312470862.94729567,-0.77933669,-0.06430241,-0.66950190
1312470862.99529839,-0.77949160,-0.06814532,-0.66800362
1312470863.04440856,-0.77929902,-0.06596630,-0.66908407
1312470863.09629202,-0.78084248,-0.06813399,-0.66767859
1312470863.14728069,-0.78051066,-0.06733397,-0.67115968
1312470863.19632316,-0.78055328,-0.07094350,-0.66777515
1312470863.23642468,-0.77970046,-0.06634595,-0.66896999
1312470863.29574466,-0.78019589,-0.06925633,-0.67072386
1312470863.34733295,-0.78008372,-0.06708664,-0.67086810
1312470863.39628482,-0.77977800,-0.06684084,-0.67031473
1312470863.44728470,-0.77895355,-0.06560068,-0.66785729
1312470863.48757124,-0.77980757,-0.06915379,-0.66882068
1312470863.54844046,-0.78053212,-0.07168745,-0.66978425
1312470863.59534192,-0.77971369,-0.06968150,-0.66733295
1312470863.64731097,-0.77953035,-0.06441750,-0.67045301
1312470863.69532943,-0.78063256,-0.06904151,-0.66658449
1312470863.73635817,-0.77674490,-0.06471106,-0.66975236
1312470863.79642129,-0.78052789,-0.06913952,-0.66939998
1312470863.84731746,-0.77903086,-0.06497343,-0.66679132
1312470863.89684868,-0.78069669,-0.07007345,-0.66550523
1312470863.94451213,-0.78080845,-0.06510676,-0.66447383
1312470863.99644446,-0.78113544,-0.06664759,-0.66327161
1312470864.04444861,-0.78016251,-0.06793511,-0.66320574
1312470864.09530592,-0.77976418,-0.06717256,-0.66332287
1312470864.14731216,-0.77894068,-0.06580477,-0.66086650
1312470864.19532013,-0.77890223,-0.06769896,-0.66273153
1312470864.23681283,-0.77829897,-0.06720578,-0.66175967
1312470864.29535842,-0.78005880,-0.07086127,-0.66411853
1312470864.34741640,-0.77875137,-0.06732079,-0.66245687
1312470864.39643884,-0.78027445,-0.07000212,-0.66077757
1312470864.44442463,-0.77937269,-0.06643343,-0.66128987
1312470864.48745346,-0.78043842,-0.06770161,-0.66093874
1312470864.54835033,-0.77931893,-0.07115889,-0.66098249
1312470864.59586859,-0.78052700,-0.06872886,-0.66026413
1312470864.64741540,-0.77946031,-0.06758832,-0.66061431
1312470864.69589067,-0.78041911,-0.06910711,-0.66079265
1312470864.73634052,-0.77999938,-0.06603006,-0.66253865
1312470864.79613638,-0.77983969,-0.07189798,-0.66288853
1312470864.84730768,-0.77847737,-0.06821585,-0.66256875
1312470864.89631295,-0.77958459,-0.06720695,-0.66035557
1312470864.94729066,-0.77916378,-0.06721332,-0.66019678
1312470864.98772311,-0.77777559,-0.06705490,-0.66441846
1312470865.04852295,-0.77847248,-0.07191245,-0.66294390
1312470865.09659147,-0.77856481,-0.06926807,-0.65960920
1312470865.14740825,-0.77746069,-0.06693829,-0.66372919
1312470865.19540906,-0.78067797,-0.07114600,-0.66079229
1312470865.23644805,-0.78087443,-0.06680026,-0.66123945
1312470865.29541659,-0.78066218,-0.06941815,-0.66712093
1312470865.34742332,-0.77955037,-0.06471801,-0.66628563
1312470865.39532542,-0.77969497,-0.07075404,-0.66262001
1312470865.44743276,-0.77876651,-0.06438685,-0.66234541
1312470865.49628949,-0.77877188,-0.06884611,-0.66298419
1312470865.54442120,-0.78082258,-0.06627572,-0.66258436
1312470865.59543943,-0.77866888,-0.06950301,-0.66136056
1312470865.64735436,-0.77968472,-0.06601612,-0.66413331
1312470865.69530773,-0.78117943,-0.06931533,-0.66432929
1312470865.73566651,-0.77799147,-0.06731790,-0.66348821
1312470865.79642868,-0.77871943,-0.07161029,-0.66699225
1312470865.84736514,-0.77973068,-0.06740911,-0.66506630
1312470865.89529133,-0.77890849,-0.06999162,-0.66311789
1312470865.94432783,-0.77962577,-0.06638498,-0.66547114
1312470865.98434711,-0.78086567,-0.07009056,-0.66376776
1312470866.04843497,-0.77870291,-0.07253024,-0.66456527
1312470866.09551311,-0.77877194,-0.06986558,-0.66311091
1312470866.14743972,-0.77961767,-0.06445024,-0.66736668
1312470866.19529963,-0.77948821,-0.07036185,-0.66368616
1312470866.24730992,-0.77990299,-0.06816548,-0.66574252
1312470866.29530096,-0.78025138,-0.06906503,-0.66481513
1312470866.34768033,-0.77843159,-0.06692551,-0.66391975
1312470866.39632893,-0.77959615,-0.06998360,-0.66315764
1312470866.44732809,-0.78013313,-0.06766113,-0.66495323
1312470866.48448825,-0.77953917,-0.06907773,-0.66437072
1312470866.54417276,-0.77875817,-0.07185774,-0.66766459
1312470866.59643245,-0.77904725,-0.06598978,-0.66718781
1312470866.64432549,-0.77891463,-0.06728953,-0.66515446
1312470866.69532967,-0.77826667,-0.06935366,-0.66375756
1312470866.73630428,-0.77907872,-0.06702798,-0.66556907
1312470866.79529381,-0.77833319,-0.06931619,-0.66712159
1312470866.84432077,-0.78063345,-0.06687491,-0.66633201
1312470866.89548755,-0.77977455,-0.07099367,-0.66396672
1312470866.94497681,-0.77925593,-0.06510723,-0.66599691
1312470866.98448277,-0.77945459,-0.06753995,-0.66504937
1312470867.04442477,-0.77887654,-0.07132534,-0.66955698
1312470867.09610033,-0.78015244,-0.07023089,-0.66332233
1312470867.14443374,-0.77775222,-0.06601514,-0.66617203
1312470867.19542813,-0.78082275,-0.06933416,-0.66296458
1312470867.24741101,-0.78002715,-0.06676463,-0.66535705
1312470867.29533553,-0.77823317,-0.06857073,-0.66537428
1312470867.34442067,-0.77878726,-0.06601483,-0.66515666
1312470867.39642882,-0.77839512,-0.06754495,-0.66566014
1312470867.44444537,-0.77945453,-0.06652047,-0.66492265
1312470867.49644661,-0.77929574,-0.06920231,-0.66489333
1312470867.54761577,-0.78017092,-0.06803621,-0.66562462
1312470867.59540868,-0.77978474,-0.07073685,-0.66410369
1312470867.64832473,-0.78013921,-0.06689534,-0.66495937
1312470867.69639802,-0.78096032,-0.07035204,-0.66309929
1312470867.73629713,-0.77747816,-0.06589071,-0.66615719
1312470867.79542375,-0.77973920,-0.06954918,-0.66773862
1312470867.84729290,-0.77949131,-0.06702317,-0.66559297
1312470867.89528799,-0.77915519,-0.07060628,-0.66500902
1312470867.94875288,-0.78032774,-0.06662910,-0.66577864
1312470867.98845959,-0.77910715,-0.06844907,-0.66394728
1312470868.03547359,-0.77867377,-0.07235893,-0.66859674
1312470868.09530497,-0.77882946,-0.06904049,-0.66849625
1312470868.15133047,-0.78067410,-0.06778391,-0.66484916
1312470868.19530749,-0.77831978,-0.06689746,-0.66660142
1312470868.23541260,-0.77978557,-0.06755077,-0.66372442
1312470868.29528475,-0.77903003,-0.07213476,-0.66539353
1312470868.34844637,-0.77951360,-0.06819057,-0.66383833
1312470868.39643621,-0.77935570,-0.06870581,-0.66355658
1312470868.44838929,-0.77894908,-0.06590588,-0.66328532
1312470868.49528289,-0.77964002,-0.06959290,-0.66383511
1312470868.54442787,-0.77808213,-0.06513412,-0.66471940
1312470868.59575963,-0.77877283,-0.07065477,-0.66095471
1312470868.64843822,-0.77967244,-0.06550872,-0.66386765
1312470868.69535565,-0.77855676,-0.06835281,-0.66163152
1312470868.73632002,-0.78013492,-0.06730320,-0.66267133
1312470868.79638243,-0.77798140,-0.06961369,-0.66360474
1312470868.84738851,-0.77974904,-0.06715073,-0.66533810
1312470868.89629769,-0.77879101,-0.06835742,-0.66097307
1312470868.94834065,-0.77916700,-0.06591361,-0.66235709
1312470868.98743987,-0.77742416,-0.06653824,-0.66534281
1312470869.04437637,-0.78098512,-0.07146949,-0.66591460
1312470869.09528351,-0.78042632,-0.07025266,-0.66105324
1312470869.14738154,-0.77857423,-0.06628576,-0.66393280
1312470869.19533658,-0.78101933,-0.07100265,-0.66188824
1312470869.23647213,-0.77821857,-0.06719644,-0.66269583
1312470869.29534507,-0.77794051,-0.06860202,-0.66280365
1312470869.34733272,-0.77827179,-0.06575973,-0.66566640
1312470869.39644861,-0.77861685,-0.06989528,-0.66054827
1312470869.44441867,-0.77857715,-0.06783917,-0.66190535
1312470869.49632001,-0.77895617,-0.06898772,-0.66151541
1312470869.54414964,-0.77911806,-0.06694247,-0.66167456
1312470869.59533596,-0.77977717,-0.07040545,-0.65940189
1312470869.64741158,-0.77745330,-0.06670956,-0.66131133
1312470869.69540930,-0.77932173,-0.07067333,-0.65870160
1312470869.73635817,-0.78057188,-0.06821053,-0.66094261
1312470869.79642701,-0.77909911,-0.07048959,-0.66406590
1312470869.84742212,-0.77932781,-0.06593229,-0.66048467
1312470869.89529657,-0.77801651,-0.06993604,-0.65742218
1312470869.94741249,-0.77900368,-0.06492539,-0.65953279
1312470869.99559021,-0.77810729,-0.06979121,-0.65890688
1312470870.04853058,-0.77901310,-0.06887412,-0.66017562
1312470870.09554100,-0.77937245,-0.06928655,-0.65710217
1312470870.14742184,-0.77794927,-0.06429224,-0.66014862
1312470870.19542384,-0.77962208,-0.07043514,-0.65683919
1312470870.23628473,-0.77941746,-0.06785139,-0.65993786
1312470870.29634762,-0.77832836,-0.07043554,-0.65810841
1312470870.34439683,-0.77977902,-0.06709174,-0.65902370
1312470870.39527607,-0.77934593,-0.06954650,-0.65669554
1312470870.44734669,-0.77861041,-0.06749996,-0.65787798
1312470870.49643254,-0.77802455,-0.06789551,-0.65730357
1312470870.54778719,-0.78018552,-0.06683324,-0.65891474
1312470870.59541559,-0.77835768,-0.06571477,-0.65801120
1312470870.64832783,-0.77890587,-0.06698310,-0.65816772
1312470870.69644403,-0.77925521,-0.07071080,-0.65533757
1312470870.73673129,-0.77760780,-0.06739136,-0.65714890
1312470870.79643631,-0.77717614,-0.06890433,-0.65926296
1312470870.84844542,-0.77883369,-0.06799168,-0.65936553
1312470870.89532948,-0.78038102,-0.07056566,-0.65580690
1312470870.94729376,-0.77857661,-0.06559487,-0.65708399
1312470870.98844314,-0.77769947,-0.06803572,-0.65647739
1312470871.04742241,-0.77800411,-0.07136494,-0.65512604
1312470871.09535551,-0.77782774,-0.07009961,-0.65431899
1312470871.14741421,-0.77913481,-0.06752320,-0.65522021
1312470871.19643474,-0.78040123,-0.07096884,-0.65392351
1312470871.23656392,-0.77823925,-0.06818347,-0.65408832
1312470871.29645395,-0.77845269,-0.07209314,-0.65810317
1312470871.34840012,-0.78082401,-0.06673194,-0.65586126
1312470871.39529896,-0.77823120,-0.06726822,-0.65611070
1312470871.44842076,-0.77969009,-0.06789812,-0.65538383
1312470871.49635601,-0.77922750,-0.06803994,-0.65454966
1312470871.54442072,-0.77790928,-0.06804502,-0.65541428
1312470871.59542918,-0.77820259,-0.06971972,-0.65367150
1312470871.64843678,-0.77956372,-0.06649579,-0.65538704
1312470871.69643140,-0.77862525,-0.07037491,-0.65167505
1312470871.73572040,-0.77846044,-0.06495520,-0.65735084
1312470871.79544640,-0.77783418,-0.07147545,-0.65686250
1312470871.84439111,-0.77795488,-0.06627691,-0.65368307
1312470871.89527893,-0.77866697,-0.06921999,-0.65222371
1312470871.94732165,-0.77873933,-0.06729459,-0.65318316
1312470871.98840690,-0.77889431,-0.06920119,-0.65371537
1312470872.04439783,-0.77670544,-0.07108667,-0.65854740
1312470872.09541011,-0.78042156,-0.06943571,-0.65407056
1312470872.14442229,-0.77765036,-0.06498665,-0.65528792
1312470872.19629502,-0.77655613,-0.06525317,-0.65535712
1312470872.23649001,-0.77817720,-0.06791575,-0.65529633
1312470872.29460859,-0.77923495,-0.07030763,-0.65722096
